Simultaneous Nadir Overpasses (SNOs) Predictions

Prediction of SNOs between AQUA and METOP-C Satellite Orbit:

Table of predicted SNOs for the next 14.0 days since TLE Epoch: 2/12/2022
Index Date (AQUA) Time (AQUA) Lat,Lon (AQUA) SZA (AQUA ) Date (METOP-C) Time (METOP-C) Lat,Lon (METOP-C) SZA (METOP-C ) Distance(km) Time Diff (sec)
1 02/12/2022 16:45:21 -73.74, 103.24 92.62 02/12/2022 16:44:40 -73.76, 103.21 92.60 2.02 41
2 02/12/2022 17:34:50 73.82, -89.30 87.46 02/12/2022 17:35:18 73.80, -89.35 87.43 3.17 28
3 02/15/2022 12:19:32 -73.77, 169.65 93.55 02/15/2022 12:19:02 -73.76, 169.63 93.55 0.86 30
4 02/15/2022 13:09:01 73.85, -22.90 86.53 02/15/2022 13:09:39 73.85, -22.83 86.52 2.34 38
5 02/18/2022 07:53:41 -73.77,-123.89 94.54 02/18/2022 07:53:23 -73.76,-123.96 94.54 2.51 18
6 02/18/2022 08:43:10 73.86, 43.56 85.55 02/18/2022 08:44:00 73.84, 43.57 85.53 1.80 50
7 02/21/2022 02:38:19 73.47, 135.60 84.14 02/21/2022 02:37:09 73.40, 134.30 84.15 41.86 70
8 02/21/2022 03:27:51 -73.80, -57.48 95.52 02/21/2022 03:27:44 -73.80, -57.45 95.51 1.13 7
9 02/21/2022 04:17:20 73.89, 109.97 84.57 02/21/2022 04:18:21 73.88, 110.07 84.55 3.29 61
10 02/23/2022 22:12:33 73.73,-158.49 83.40 02/23/2022 22:11:24 73.74,-158.52 83.42 1.28 69
11 02/23/2022 23:02:00 -73.80, 8.99 96.55 02/23/2022 23:02:06 -73.79, 8.93 96.55 2.04 6



Historial Predications of SNOs between AQUA and METOP-C
